Torna al catalogo

STARLINK-32792

AttivoComunicazioniVLEO
NORAD 62504·PAYLOAD·🇺🇸 United States

Lanciato Jan 6, 2025 da Cape Canaveral Space Force Station

Loading…

Prossimi Passaggi (prossime 24 ore)

TLE

AggiornatoSource: CelesTrak SupGP

Epoca: Sep 14, 2026, 20:57 UTC

1 62504C 25003T   26257.87340278 -.00021888  00000+0 -79277-3 0  2578
2 62504  43.0021 300.1305 0001568 270.2202 307.1537 15.27589964    19

Traccia STARLINK-32792 in tempo reale con AllMySat

Download on the App Store